TIANQI 35

Last updated on Sun Jan 19 2025 00:02:03 GMT+0000 (Coordinated Universal Time)

1 62367U 24245C 25018.58204087 .00000098 00000+0 13319-3 0 9997 2 62367 44.9851 91.2040 0009774 105.3493 254.8424 14.08405553 4272
UTC large
Height (km)
Speed (km/s)
/
Latitude / Longitude
Inclination (degrees)
Orbital Period (minutes)
Azimuth
Elevation
Range (km)
Doppler Factor

Next 0 passes for location: London (51.5072 / 0.1276)

Sorry there are no passes over London.